レモン彗星

C/2015 XY1 ( Lemmon )

English version
Home page
Updated on June 15, 2021

---------------------------------------------------------------------

・ プロフィール

発見日 2015年12月4日
発見光度 20.4等
発見者 J. A. Johnson (Mount Lemmon)

・ 写真集

・ 軌道要素

Epoch 2018 May 2.0 TT = JDT 2458240.5                                           
T 2018 Apr. 29.92255 TT                                 Rudenko                 
q   7.9279313            (2000.0)            P               Q                  
z  -0.0005183      Peri.  196.35218     +0.04279091     +0.86104994             
 +/-0.0000010      Node   281.61654     +0.96478360     +0.09614229             
e   1.0041089      Incl.  148.84782     +0.25954103     -0.49934924             
From 738 observations 2015 Dec. 4-2020 Oct. 20, mean residual 0".9.             

・ 光度変化

        m1 = -5.0 + 5 logΔ + 20.0 log r

---------------------------------------------------------------------

軌道要素はM.P.E.C. 2021-J28に掲載されたものです。
光度グラフはComet for Windowsで作成したものです。

---------------------------------------------------------------------

Copyright(C) Seiichi Yoshida (comet@aerith.net). All rights reserved.